Steamboat Springs, CO

9:12 PM MDT on April 21, 2018 (GMT -0600)
Steamboat Springs-Adams

Weather History for KSBS - February, 2014

Change the Weather History Date:

Saturday, February 22, 2014

  Actual Average Record
Temperature  
Mean Temperature 30 °F -  
Max Temperature 36 °F 34 °F 50 °F (1958)
Min Temperature 23 °F 3 °F -26 °F (1975)
Degree Days  
Heating Degree Days 36    
Moisture  
Dew Point 15 °F    
Average Humidity 58    
Maximum Humidity 78    
Minimum Humidity 40    
Precipitation  
Precipitation 0.00 in - - ()
Sea Level Pressure  
Sea Level Pressure 29.88 in    
Wind  
Wind Speed 6 mph (WNW)    
Max Wind Speed 23 mph    
Max Gust Speed 31 mph    
Visibility 9 miles    
Events      
Averages and records for this station are not official NWS values.
T = Trace of Precipitation, MM = Missing Value Source: NWS Daily Summary

Daily Weather History Graph

Daily Weather History Graph

Search for Another Location

Airport or City:

Astronomy

Feb. 22, 2014 Rise Set
Actual Time 6:51 AM MST 5:51 PM MST
Civil Twilight 6:23 AM MST 6:18 PM MST
Nautical Twilight 5:52 AM MST 6:50 PM MST
Astronomical Twilight 5:20 AM MST 7:22 PM MST
Moon 12:50 AM MST 11:03 AM MST
Length of Visible Light 11h 54m
Length of Day
10h 59m
Waning Gibbous, 49% of the Moon is Illuminated
Feb 22
Waning Gibbous
Mar 1
New
Mar 8
First Quarter
Mar 16
Full
Mar 23
Last Quarter

Hourly Weather History & Observations

Time (MST) Temp. Windchill Dew Point Humidity Pressure Visibility Wind Dir Wind Speed Gust Speed Precip Events Conditions
12:15 AM 25.9 °F 21.7 °F 9.9 °F 51% 29.91 in 10.0 mi ESE 3.5 mph - N/A   Overcast
12:35 AM 25.3 °F 19.7 °F 10.4 °F 53% 29.90 in 10.0 mi SE 4.6 mph - N/A   Overcast
12:55 AM 24.8 °F 20.5 °F 11.7 °F 57% 29.90 in 10.0 mi East 3.5 mph - N/A   Overcast
1:15 AM 25.7 °F 21.5 °F 10.6 °F 53% 29.90 in 10.0 mi East 3.5 mph - N/A   Overcast
1:35 AM 25.3 °F 19.7 °F 11.1 °F 55% 29.89 in 10.0 mi East 4.6 mph - N/A   Overcast
1:55 AM 24.3 °F - 11.7 °F 59% 29.89 in 10.0 mi Calm Calm - N/A   Overcast
2:15 AM 25.2 °F 20.9 °F 11.1 °F 55% 29.88 in 10.0 mi East 3.5 mph - N/A   Overcast
2:35 AM 24.3 °F - 11.8 °F 59% 29.88 in 10.0 mi Calm Calm - N/A   Overcast
2:55 AM 23.7 °F - 11.8 °F 61% 29.87 in 10.0 mi Calm Calm - N/A   Overcast
3:15 AM 23.4 °F - 11.8 °F 61% 29.87 in 10.0 mi Calm Calm - N/A   Overcast
3:35 AM 24.3 °F - 11.1 °F 57% 29.87 in 10.0 mi Calm Calm - N/A   Overcast
3:55 AM 23.0 °F - 12.6 °F 64% 29.87 in 10.0 mi Calm Calm - N/A   Overcast
4:15 AM 24.3 °F - 11.3 °F 58% 29.87 in 10.0 mi Calm Calm - N/A   Overcast
4:35 AM 23.7 °F 17.8 °F 11.5 °F 60% 29.87 in 10.0 mi ESE 4.6 mph - N/A   Overcast
4:55 AM 24.6 °F 20.3 °F 11.1 °F 57% 29.87 in 10.0 mi WSW 3.5 mph - N/A   Overcast
5:15 AM 23.4 °F - 11.5 °F 60% 29.88 in 10.0 mi Calm Calm - N/A   Overcast
5:35 AM 25.7 °F 17.1 °F 11.7 °F 55% 29.88 in 10.0 mi West 8.1 mph - N/A   Overcast
5:55 AM 27.5 °F 19.3 °F 13.6 °F 56% 29.87 in 10.0 mi WNW 8.1 mph - N/A   Overcast
6:15 AM 26.4 °F 18.0 °F 16.5 °F 66% 29.87 in 7.0 mi NNW 8.1 mph - N/A   Overcast
6:35 AM 25.5 °F 15.5 °F 18.0 °F 73% 29.87 in 7.0 mi NW 10.4 mph - N/A   Overcast
6:55 AM 25.7 °F 19.0 °F 17.6 °F 71% 29.87 in 10.0 mi WNW 5.8 mph - N/A   Overcast
7:15 AM 25.7 °F 19.0 °F 17.6 °F 71% 29.88 in 10.0 mi NNW 5.8 mph - N/A   Overcast
7:35 AM 25.3 °F 17.6 °F 18.9 °F 76% 29.88 in 7.0 mi NNW 6.9 mph - N/A   Overcast
7:55 AM 25.3 °F - 19.4 °F 78% 29.88 in 5.0 mi Calm Calm - N/A   Overcast
8:15 AM 25.7 °F 21.5 °F 19.2 °F 76% 29.88 in 5.0 mi North 3.5 mph - N/A   Overcast
8:35 AM 26.4 °F 22.4 °F 18.7 °F 73% 29.89 in 4.0 mi NE 3.5 mph - N/A   Overcast
8:55 AM 26.6 °F 21.2 °F 18.9 °F 73% 29.89 in 3.0 mi NNW 4.6 mph - N/A   Overcast
9:15 AM 26.6 °F 21.2 °F 19.0 °F 73% 29.88 in 2.0 mi NNE 4.6 mph - N/A   Overcast
9:35 AM 27.7 °F 23.8 °F 19.0 °F 70% 29.88 in 7.0 mi ENE 3.5 mph - N/A   Overcast
9:55 AM 27.5 °F 22.2 °F 19.2 °F 71% 29.88 in 10.0 mi East 4.6 mph - N/A   Overcast
10:15 AM 28.8 °F - 18.7 °F 66% 29.88 in 10.0 mi Calm Calm - N/A   Overcast
10:35 AM 29.7 °F - 16.9 °F 59% 29.88 in 7.0 mi Calm Calm - N/A   Overcast
10:55 AM 29.8 °F 26.3 °F 16.9 °F 59% 29.88 in 10.0 mi NE 3.5 mph - N/A   Overcast
11:15 AM 30.2 °F 25.4 °F 16.9 °F 58% 29.87 in 10.0 mi East 4.6 mph - N/A   Overcast
11:35 AM 29.8 °F 24.9 °F 17.4 °F 60% 29.87 in 10.0 mi ESE 4.6 mph - N/A   Overcast
11:55 AM 30.9 °F 27.5 °F 17.1 °F 57% 29.87 in 10.0 mi East 3.5 mph - N/A   Overcast
12:15 PM 32.0 °F - 14.2 °F 48% 29.86 in 10.0 mi Calm Calm - N/A   Overcast
12:35 PM 31.3 °F 26.6 °F 14.5 °F 50% 29.84 in 10.0 mi East 4.6 mph - N/A   Overcast
12:55 PM 31.8 °F 27.3 °F 14.7 °F 49% 29.84 in 10.0 mi East 4.6 mph - N/A   Overcast
1:15 PM 32.2 °F - 14.4 °F 48% 29.83 in 10.0 mi Calm Calm - N/A   Overcast
1:35 PM 33.8 °F 30.8 °F 13.8 °F 44% 29.82 in 10.0 mi ESE 3.5 mph - N/A   Overcast
1:55 PM 34.9 °F 24.9 °F 14.2 °F 43% 29.81 in 10.0 mi WSW 16.1 mph 21.9 mph N/A   Overcast
2:15 PM 36.5 °F 26.3 °F 14.2 °F 40% 29.80 in 10.0 mi WSW 18.4 mph 26.5 mph N/A   Overcast
2:35 PM 35.8 °F 24.2 °F 15.1 °F 43% 29.81 in 10.0 mi WSW 23.0 mph 31.1 mph N/A   Overcast
2:55 PM 36.5 °F 27.4 °F 16.3 °F 44% 29.82 in 10.0 mi West 15.0 mph 21.9 mph N/A   Overcast
3:15 PM 35.8 °F 25.7 °F 16.5 °F 46% 29.82 in 10.0 mi West 17.3 mph 23.0 mph N/A   Overcast
3:35 PM 35.6 °F 25.2 °F 16.3 °F 46% 29.82 in 10.0 mi WSW 18.4 mph 27.6 mph N/A   Overcast
3:55 PM 32.0 °F 22.5 °F 21.0 °F 64% 29.83 in 10.0 mi WNW 12.7 mph - N/A   Overcast
4:15 PM 32.0 °F 22.5 °F 20.1 °F 62% 29.84 in 10.0 mi West 12.7 mph 23.0 mph N/A   Overcast
4:35 PM 32.0 °F 21.6 °F 20.3 °F 62% 29.84 in 10.0 mi WNW 15.0 mph 19.6 mph N/A   Overcast
4:55 PM 30.9 °F 20.2 °F 21.6 °F 68% 29.86 in 10.0 mi WNW 15.0 mph 20.7 mph N/A   Overcast
5:15 PM 29.8 °F 18.9 °F 22.3 °F 73% 29.86 in 10.0 mi WNW 15.0 mph 23.0 mph N/A   Overcast
5:35 PM 31.1 °F 18.6 °F 19.4 °F 62% 29.87 in 10.0 mi West 20.7 mph 25.3 mph N/A   Overcast
5:55 PM 31.8 °F 20.6 °F 17.6 °F 56% 29.87 in 10.0 mi WSW 17.3 mph 25.3 mph N/A   Overcast
6:15 PM 31.6 °F 18.7 °F 17.6 °F 56% 29.88 in 10.0 mi SW 23.0 mph 31.1 mph N/A   Overcast
6:35 PM 31.1 °F 23.7 °F 19.2 °F 61% 29.90 in 10.0 mi South 8.1 mph - N/A   Overcast
6:55 PM 30.0 °F 21.7 °F 21.9 °F 72% 29.90 in 10.0 mi WSW 9.2 mph - N/A   Overcast
7:15 PM 32.0 °F 22.1 °F 12.4 °F 44% 29.91 in 10.0 mi West 13.8 mph 21.9 mph N/A   Overcast
7:35 PM 32.0 °F 22.1 °F 11.1 °F 42% 29.91 in 10.0 mi West 13.8 mph 26.5 mph N/A   Overcast
7:55 PM 32.0 °F 21.2 °F 10.8 °F 41% 29.91 in 10.0 mi West 16.1 mph 20.7 mph N/A   Overcast
8:15 PM 32.0 °F 22.1 °F 10.2 °F 40% 29.92 in 10.0 mi West 13.8 mph 24.2 mph N/A   Overcast
8:35 PM 31.5 °F 22.9 °F 11.8 °F 44% 29.92 in 10.0 mi WSW 10.4 mph - N/A   Overcast
8:55 PM 30.2 °F 23.4 °F 13.1 °F 49% 29.94 in 10.0 mi SW 6.9 mph - N/A   Overcast
9:15 PM 30.2 °F 24.3 °F 13.5 °F 50% 29.94 in 10.0 mi SW 5.8 mph - N/A   Overcast
9:35 PM 29.8 °F 24.9 °F 14.2 °F 52% 29.94 in 10.0 mi SW 4.6 mph - N/A   Overcast
9:55 PM 29.8 °F - 14.0 °F 52% 29.93 in 10.0 mi Calm Calm - N/A   Overcast
10:15 PM 29.8 °F - 13.6 °F 51% 29.94 in 10.0 mi Calm Calm - N/A   Overcast
10:35 PM 30.0 °F - 13.1 °F 49% 29.94 in 10.0 mi Calm Calm - N/A   Overcast
10:55 PM 27.9 °F 22.6 °F 14.9 °F 58% 29.93 in 10.0 mi ENE 4.6 mph - N/A   Overcast
11:15 PM 28.0 °F 20.0 °F 19.0 °F 69% 29.93 in 10.0 mi NE 8.1 mph - N/A   Overcast
11:35 PM 28.2 °F 21.0 °F 19.4 °F 70% 29.93 in 10.0 mi ENE 6.9 mph - N/A   Overcast
11:55 PM 28.4 °F 21.2 °F 19.4 °F 69% 29.93 in 10.0 mi East 6.9 mph - N/A   Overcast